Flag for U.S.A. Weather past 2 weeks in Wailuku, Hawaii, U.S.A.

Now
75 °F

Mostly cloudy.


Feels Like: 75 °F
Forecast: 70 / 79 °F
Wind: 22 mph from Northeast

Location: Kahului Airport

Current Time: Apr 27, 2015 at 1:22:05 PM

Latest Report: Apr 27, 2015 at 12:54 PM


Visibility: 6 mi

Pressure: 30.09 "Hg

Humidity: 82%

Dew point: 69 °F

Location of WailukuLocation

Historic Weather in Wailuku — Graph

°F

Wailuku temperature yesterday

Maximum temperature yesterday: 85 °F (at 10:54 AM)
Minimum temperature yesterday: 68 °F (at 5:54 AM)
Average temperature yesterday: 75 °F

Past Weeks' High & Low Weather Summary

 TemperatureHumidityPressure
High89 °F (Apr 22, 12:54 PM)94% (Apr 26, 7:54 PM)30.17 "Hg (Apr 26, 7:54 PM)
Low64 °F (Apr 22, 4:54 AM)40% (Apr 23, 11:54 AM)29.93 "Hg (Apr 23, 2:54 PM)
Average76 °F72%30.05 "Hg
* Reported Apr 12 12:54 PM — Apr 27 12:17 PM, Wailuku, Weather by CustomWeather, © 2015

Note: Actual official high and low records may vary slightly from our data, if they occured in-between our weather recording intervals... More about our weather records

Advertising

Wailuku weather history for previous 24 hours

 ConditionsComfort  
Time TempWeatherWind HumidityBarometerVisibility
12:17 PM
Mon, Apr 27
75 °FMostly cloudy.22 mph83%30.08 "Hg10 mi
11:54 AM76 °FCloudy.23 mph80%30.10 "Hg10 mi
10:54 AM77 °FCloudy.21 mph74%30.11 "Hg10 mi
9:54 AM75 °FCloudy.24 mph76%30.12 "Hg10 mi
8:54 AM74 °FLight rain. Cloudy.23 mph82%30.11 "Hg10 mi
8:02 AM73 °FFog.25 mph89%30.09 "Hg6 mi
7:58 AM73 °FMostly cloudy.24 mph89%30.09 "Hg7 mi
6:54 AM73 °FFog.21 mph88%30.08 "Hg4 mi
5:54 AM73 °FLight rain. Fog.24 mph90%30.06 "Hg4 mi
5:36 AM73 °FRain. Fog.22 mph89%30.04 "Hg4 mi
5:18 AM73 °FRain. Fog.21 mph89%30.03 "Hg3 mi
4:54 AM73 °FOvercast.23 mph90%30.03 "Hg9 mi
4:27 AM73 °FMostly cloudy.23 mph89%30.01 "Hg10 mi
4:19 AM73 °FLight rain. Overcast.23 mph89%30.01 "Hg10 mi
3:56 AM73 °FOvercast.21 mph89%30.01 "Hg10 mi
3:40 AM73 °FLight rain. Mostly cloudy.18 mph89%30.01 "Hg8 mi
3:18 AM73 °FRain. Fog.17 mph94%30.00 "Hg3 mi
2:54 AM72 °FRain. Fog.15 mph93%30.02 "Hg4 mi
2:41 AM73 °FHeavy rain. Fog.16 mph94%30.01 "Hg2 mi
2:16 AM73 °FLight rain. Fog.12 mph94%30.01 "Hg5 mi
1:54 AM73 °FLight rain. Fog.12 mph90%30.03 "Hg4 mi
1:36 AM73 °FLight rain. Fog.12 mph94%30.02 "Hg4 mi
1:13 AM72 °FHeavy rain. Fog.12 mph94%30.02 "Hg2 mi
12:54 AM72 °FHeavy rain. Fog.8 mph93%30.04 "Hg2 mi
12:47 AM72 °FHeavy rain. Fog.8 mph94%30.03 "Hg2 mi
12:33 AM73 °FLight rain. Fog.12 mph89%30.04 "Hg4 mi
11:54 PM
Sun, Apr 26
72 °FLight rain. Overcast.7 mph93%30.06 "Hg7 mi
11:06 PM72 °FRain. Fog.9 mph94%30.05 "Hg4 mi
10:54 PM73 °FHeavy rain. Fog.8 mph90%30.06 "Hg2 mi
9:58 PM73 °FHeavy rain. Fog.5 mph89%30.04 "Hg2 mi
9:24 PM72 °FLight rain. Fog.3 mph94%30.03 "Hg3 mi
8:54 PM72 °FHeavy rain. Fog.3 mph93%30.04 "Hg2 mi
8:25 PM73 °FHeavy rain. Fog.No wind94%30.03 "Hg2 mi
8:18 PM73 °FRain. Fog.No wind89%30.03 "Hg2 mi
7:54 PM73 °FHeavy rain. Fog.No wind94%30.03 "Hg2 mi
6:54 PM74 °FMostly cloudy.5 mph91%30.00 "Hg9 mi
5:54 PM75 °FMore clouds than sun.5 mph88%29.99 "Hg9 mi
5:01 PM75 °FLight rain. More clouds than sun.6 mph89%29.97 "Hg4 mi
4:16 PM77 °FLight rain. Broken clouds.5 mph79%29.97 "Hg7 mi
4:03 PM79 °FMostly cloudy.8 mph74%29.96 "Hg9 mi
2:54 PM83 °FPartly sunny.12 mph65%29.98 "Hg10 mi
1:54 PM83 °FBroken clouds.10 mph65%29.99 "Hg10 mi
Weather by CustomWeather, © 2015

See weather overviewHow to use our weather pages